Tracking 19827 objects as of 21-Aug-2019
HD Live streaming from Space Station
objects crossing your sky now

FLOCK 2K 28

Track FLOCK 2K 28 now!
10-day predictions
FLOCK 2K 28 is classified as:


NORAD ID: 42880
Int'l Code: 2017-042BH
Perigee: 456.8 km
Apogee: 473.7 km
Inclination: 96.9 °
Period: 93.8 minutes
Semi major axis: 6836 km
RCS: Unknown
Launch date: July 14, 2017
Source: United States (US)
Launch site: TYURATAM MISSILE AND SPACE COMPLEX (TTMTR)
aabbcc
Your satellite tracking list
Your tracking list is empty




NASA's NSSDC Master Catalog

Two Line Element Set (TLE):
1 42880U 17042BH  19232.78469783 +.00002118 +00000-0 +62503-4 0  9997
2 42880 096.9321 109.9276 0012311 000.4066 359.7187 15.35942293117510
Source of the keplerian elements: AFSPC